Погода в Цзянмыни

Китай     22°27′37″N   113°01′27″E
темп.,
°C
ветер,
м/с
пор.,
м/с
влажн.,
%
обл.,
%
осадки,
мм/ч
давл.,
гПа
погр.,
м
12 апреля, пн
пн1223:00+22ююв36795 0.0 1018343
02:00+21ю22846 0.0 1017103
05:00+22ю128092 0.0 1016197
08:00+23зюз0175100 0.0 1018201
11:00+26юв236446 0.0 1018845
14:00+30ююв444997 0.1 10141870
17:00+28ююв445774 0.0 1013844
20:00+25ююв46754 0.0 1014311
13 апреля, вт
вт1323:00+23ююв12847 0.0 1015110
02:00+23ю11876 0.0 101450
05:00+22ю119019 0.0 101440
08:00+24ююв22785 0.0 1015392
11:00+29ююв33516 0.0 10151277
14:00+32ююв334019 0.0 10111951
17:00+31ююв654624 0.0 1010985
20:00+26ю356441 0.0 1012344
14 апреля, ср
ср1423:00+25ю12744 0.0 1013169
02:00+24ююз12804 0.0 101278
05:00+23ююв1183100 0.0 101250
08:00+25юв3572100 0.0 1014586
11:00+30юв554953 0.0 10141599
14:00+29ююв7652100 0.0 10121666
17:00+28юв7761100 0.0 10111112
20:00+24юв687895 0.0 1013577
15 апреля, чт
чт1523:00+23юв687993 0.0 1014716
02:00+23юв6878100 0.1 1014695
05:00+22вюв6977100 0.1 1014750
08:00+23юв7973100 0.1 1015728
11:00+26юв6659100 0.0 10151105
14:00+28ююв5454100 0.0 10121400
17:00+27ююв435771 0.0 1012990
20:00+24юв4572100 0.0 1014351
16 апреля, пт
пт1623:00+23юв237898 0.0 1015273
02:00+22юв238289 0.0 1014216
05:00+22юв358289 0.0 1014499
08:00+24юв3574100 0.0 1016645
11:00+27вюв335969 0.0 10161245
14:00+30вюв334793 0.1 10131739
17:00+28ююв655399 0.0 1012711
20:00+25ююв456889 0.0 1014271